Regional Weather Roundup
Issued by NWS

Home | Current Version | Previous Version | Text Only | Print | Product List | Glossary On
Versions: 1 2 3 4 5 6 7 8 9 10 11 12 13 14 15 16 17 18 19 20 21 22 23 24 25 26 27 28 29 30 31 32 33 34 35 36 37 38 39 40 41 42 43 44 45 46 47 48 49 50
673
ASUS43 KDTX 221401
RWRMI
MICHIGAN HOURLY REGIONAL WEATHER ROUNDUP
NATIONAL WEATHER SERVICE DETROIT/PONTIAC MI
1000 AM EDT MON MAY 22 2017

NOTE: "FAIR" INDICATES FEW OR NO CLOUDS BELOW 12,000 FEET WITH NO
SIGNIFICANT WEATHER AND/OR OBSTRUCTION TO VISIBILITY.

MIZ047>049-052>055-059>063-066>070-074>076-081>083-221500-
SOUTHEAST LOWER MICHIGAN

CITY           SKY/WX    TMP DP  RH WIND       PRES   REMARKS
ADRIAN         CLOUDY    53  42  66 W9        30.04S
ALMA           CLOUDY    50  43  74 SW10G22   29.96S
ANN ARBOR      CLOUDY    53  43  68 SW10      30.01R
BAD AXE        CLOUDY    50  43  76 W15G23    29.93S
CARO           CLOUDY    51  44  76 SW10G20   29.94S
DETROIT CITY   CLOUDY    54  42  64 W15       30.01R
DETROIT        CLOUDY    54  43  66 SW15      30.02R
FLINT          CLOUDY    53  40  61 W20G25    29.98R
GROSSE ILE     CLOUDY    54  43  65 W8G16     30.02S
HILLSDALE      PTSUNNY   54  41  62 W12G22    30.01F
HOWELL         CLOUDY    53  40  61 W9G16     29.99S

CITY           SKY/WX    TMP DP  RH WIND       PRES   REMARKS
JACKSON        CLOUDY    54  42  64 W15G24    30.00S
LAMBERTVILLE   CLOUDY    54  43  65 W12       30.04S
LANSING        CLOUDY    53  40  61 W16G22    29.99S
LAPEER         CLOUDY    53  42  66 W13G21    29.98R
MASON          CLOUDY    53  41  65 W10G21    30.00R
MONROE         CLOUDY    55  42  60 SW17      30.02F
MT. CLEMENS    PTSUNNY   54  43  65 SW9       29.99R
PONTIAC        PTSUNNY   53  41  63 SW16G24   29.98S
PORT HOPE        N/A     52  43  71 SW14G26   29.90S
PORT HURON     CLOUDY    55  39  54 SW10G18   29.98R
TRI CITIES     CLOUDY    51  44  77 SW18      29.94F
MIDLAND        CLOUDY    52  42  67 SW14G20   29.93R
TROY           CLOUDY    54  39  57 W9G20     30.02R
SAGINAW HB     CLOUDY    52  41  66 SW12      29.94F
$$
MIZ043>046-050>051-056>058-064>065-071>073-077>080-221500-
SOUTHWEST LOWER MICHIGAN

CITY           SKY/WX    TMP DP  RH WIND       PRES   REMARKS
BATTLE CREEK   SUNNY     55  42  61 W15       30.01F
BENTON HARBOR  SUNNY     55  43  63 SW16      30.04S
BIG RAPIDS     CLOUDY    48  39  71 W16G22    29.93R
COLDWATER      SUNNY     55  42  61 W10G21    30.02F
FREMONT        CLOUDY    52  38  58 SW18G26   29.96R
HOLLAND        SUNNY     54  44  69 W21G31    30.01R
GRAND RAPIDS   PTSUNNY   54  43  66 W22       29.98S
IONIA          CLOUDY    53  40  61 W15G21    29.97S
KALAMAZOO      SUNNY     55  39  54 W13G24    30.02F
LUDINGTON      CLOUDY    48  42  80 SW12G23   29.93R
MARSHALL       MOSUNNY   55  41  60 SW16      30.00F
MOUNT PLEASANT CLOUDY    50  40  67 SW15G22   29.93S
MUSKEGON       MOSUNNY   53  43  68 SW20G30   29.99R
SOUTH HAVEN    SUNNY     54  44  68 SW18G24   30.04S
$$
MIZ016>042-221500-
NORTHERN LOWER MICHIGAN

CITY           SKY/WX    TMP DP  RH WIND       PRES   REMARKS
ALPENA         CLOUDY    52  45  77 SW12      29.85S
BEAVER ISLAND  LGT RAIN  45  44  97 SW14G23   29.80S
BELLAIRE       CLOUDY    47  43  85 SW8       29.86S
CADILLAC       CLOUDY    46  43  90 SW13      29.88S
CHARLEVOIX     DRIZZLE   47  47 100 SW13      29.86S
FRANKFORT      CLOUDY    47  41  79 SW12G17   29.88S
GAYLORD        LGT RAIN  47  42  83 SW18      29.84S
GRAYLING       CLOUDY    46  43  87 SW9G20    29.87S
HARBOR SPRINGS LGT RAIN  46  46 100 SW8       29.82S
HOUGHTON LAKE  CLOUDY    48  42  80 SW14G28   29.89R
MANISTEE       CLOUDY    49  42  77 SW13      29.90R
OSCODA         CLOUDY    52  42  69 SW15G24   29.88S
PELLSTON       LGT RAIN  49  45  86 SW12G20   29.82S FOG
ROGERS CITY    CLOUDY    51  44  78 SW14G21   29.83S
TRAVERSE CITY  CLOUDY    50  44  80 SW13G20   29.85S
$$
MIZ007>008-015-221500-
EASTERN UPPER MICHIGAN

CITY           SKY/WX    TMP DP  RH WIND       PRES   REMARKS
KINROSS        CLOUDY    46  45  96 SW8       29.78S FOG
MACKINAC ISLAN LGT RAIN  46  46 100 SW14G20   29.80S VSB 1
NEWBERRY       CLOUDY    46  46  97 SW8       29.76S FOG
S. S. MARIE    CLOUDY    49  46  90 SW6       29.77S
MUNISING         N/A     48  47  96 E3        29.75S
$$
MIZ004>006-011>014-085-221500-
CENTRAL UPPER MICHIGAN

CITY           SKY/WX    TMP DP  RH WIND       PRES   REMARKS
MANISTIQUE     CLOUDY    48  46  90 SW5       29.77S
ESCANABA       LGT RAIN  49  47  93 W12       29.80R
MENOMINEE      CLOUDY    51  42  71 W13G18    29.84S
SAWYER-GWINN   CLOUDY    48  46  93 SW8       29.76S FOG
$$
MIZ001>003-009>011-084-221500-
WESTERN UPPER MICHIGAN

CITY           SKY/WX    TMP DP  RH WIND       PRES   REMARKS
IRON MOUNTAIN  CLOUDY    50  41  71 W13G20    29.78S
HOUGHTON       CLOUDY    46  43  89 W16G24    29.72S FOG
COPPER HARBOR    N/A     48  44  86 VRB6      29.71S
IRONWOOD       CLOUDY    47  44  90 SW12      29.77F
$$

ABBREVIATIONS USED IN REMARKS
   TC - TEMPERATURE IN CELSIUS
  WCI - WIND CHILL INDEX
   HX - HEAT INDEX
  VSB - VISIBILITY





USA.gov is the U.S. government's official web portal to all federal, state and local government web resources and services.